SCP
0 0 0 0 0 0 0 0 0 0 0 0 0 0 0 1 1 0 0 1 1 1 1 1 1 0 0 0 0 1 1 1
0 0 0 0 0 0 0 -0 -0 -0 0 0 0 0 0 0 0 0 0 0 0 0 0 0 0 1 1 1 1 1 1 1
0 0 0 0 0 -0 -0 -0 -0 -0 -0 -0 0 0 0 0 0 0 0 0 1 1 0 0 0 0 1 1 1 1 1 1
0 0 0 0 0 0 0 0 0 -0 -0 -0 -0 -0 -0 -0 0 0 0 0 0 1 1 1 1 1 1 1 1 1 1 1
0 0 0 0 0 0 0 0 0 0 0 -0 -0 -0 0 0 0 0 0 0 0 0 1 1 1 1 0 1 1 1 0 0
0 0 0 0 0 0 0 0 0 0 0 -0 -0 -0 -0 -0 -0 0 0 0 0 0 0 0 1 1 1 1 0 0 0 0
0 0 0 0 0 0 0 0 0 0 -0 -0 -0 -0 -0 -0 -0 -0 0 0 0 0 0 0 1 1 2 2 1 0 0 0
0 0 0 0 0 0 0 0 0 0 -0 -0 -0 -0 -0 -0 -0 -0 -0 -0 0 0 0 0 1 2 1 1 1 0 1 0
0 0 0 0 0 0 0 0 0 0 -0 -0 -0 -0 -0 0 0 0 0 0 0 0 0 0 1 2 0 0 0 0 0 0
0 0 0 0 0 0 0 0 0 0 0 0 -0 -0 -0 0 0 0 0 0 0 0 0 0 0 0 0 0 0 0 0 0
0 0 0 0 0 0 0 0 0 0 0 0 0 0 0 0 0 0 0 0 0 0 0 0 0 0 0 0 0 0 0 0
0 0 0 0 0 0 0 0 0 0 0 0 0 0 0 0 0 0 0 0 0 0 0 0 0 0 0 0 0 0 0 0
0 0 0 0 0 0 0 0 0 0 0 0 0 0 0 0 0 0 0 0 0 0 0 0 0 0 0 0 0 0 0 0
0 0 0 0 0 0 0 0 0 0 0 0 0 0 0 0 0 0 0 0 0 -0 0 0 0 0 0 0 0 0 0 0
0 0 0 0 0 0 0 0 0 0 0 0 0 0 0 -0 -0 0 -0 -0 0 0 0 0 0 0 0 0 0 0 0 0
0 0 0 0 0 0 0 0 0 0 0 0 0 0 0 0 -0 -0 0 0 -0 0 0 0 0 -0 -0 0 0 0 0 0
0 0 0 0 0 0 0 0 0 0 0 0 0 0 0 0 0 -0 -0 -0 0 0 0 0 0 0 0 -0 -0 -0 -0 0
0 0 0 0 0 0 0 0 0 0 0 0 0 0 0 0 0 -0 -0 -0 0 0 0 0 0 0 0 0 0 -0 -0 -0
0 0 0 0 0 0 0 0 0 0 0 0 0 0 0 0 0 0 0 0 0 0 0 0 0 0 0 0 0 0 0 0
0 0 0 0 0 0 0 0 0 0 0 0 0 0 0 0 0 0 0 0 0 0 0 0 0 0 0 0 0 0 0 0
Wind_Speed_500mb
43 43 36 29 19 7 5 16 27 35 37 36 34 28 31 34 38 42 45 47 41 40 44 43 40 40 41 36 28 27 26 24
31 24 20 14 13 14 25 34 32 25 22 25 32 37 39 44 46 44 47 46 46 41 46 48 45 42 43 41 38 35 34 33
42 39 33 22 9 17 31 34 35 38 40 41 40 41 43 46 47 53 53 50 48 46 48 54 57 55 55 52 52 47 43 39
52 45 39 32 29 27 22 21 32 37 45 50 47 47 48 50 52 52 52 53 55 54 57 57 61 62 62 58 52 52 48 42
43 39 34 24 25 25 26 28 27 30 39 45 46 50 57 61 56 54 57 59 58 59 61 63 58 62 67 71 59 55 50 44
31 28 29 29 28 23 21 23 26 33 42 52 59 65 72 67 66 61 59 61 62 61 62 63 63 61 71 75 65 56 51 46
30 30 28 27 23 20 23 22 30 41 49 56 67 72 79 82 68 67 65 63 64 66 67 66 64 65 66 67 51 57 47 49
24 23 23 23 18 15 21 35 46 48 51 58 67 70 73 80 77 71 64 65 60 60 64 63 64 65 62 58 58 52 44 40
25 22 21 19 14 22 35 41 45 49 59 69 69 72 67 53 54 57 55 57 56 47 47 49 52 60 57 54 58 50 43 42
45 38 28 20 23 26 27 30 37 47 54 58 52 50 48 44 46 49 48 52 55 47 45 37 41 43 53 59 55 56 54 41
31 24 18 13 15 22 31 36 42 46 44 47 45 47 52 51 45 42 45 45 51 40 33 32 23 34 35 50 56 58 52 44
19 18 20 26 29 29 33 38 33 33 39 41 44 50 50 48 51 49 44 46 47 42 33 20 18 13 24 40 49 42 41 33
16 21 26 30 34 36 35 28 29 27 27 34 41 46 46 47 47 47 52 48 52 51 35 27 18 21 21 19 20 18 23 27
16 24 31 36 38 37 32 30 21 28 28 30 33 39 45 50 56 58 58 57 59 51 44 36 25 19 19 26 30 32 33 41
18 28 35 38 36 35 35 37 35 37 36 37 35 38 42 47 53 61 65 66 63 59 47 35 31 27 14 14 17 21 28 30
26 30 32 34 35 33 34 33 34 36 41 41 40 44 50 56 58 60 63 64 61 51 48 39 31 33 31 22 20 25 31 50
20 22 23 27 29 32 27 35 42 51 60 67 65 61 61 64 61 62 65 60 54 42 43 38 37 33 41 46 46 50 38 34
21 21 25 26 28 37 42 47 55 72 77 69 69 72 69 63 64 61 55 48 39 34 38 37 35 33 35 41 44 42 42 37
22 24 22 34 42 52 62 63 67 74 70 65 70 73 61 51 52 48 42 36 31 33 33 31 28 27 26 27 29 32 29 27
18 26 37 53 66 65 63 61 73 63 64 71 80 63 45 41 42 36 28 27 29 26 22 24 26 21 14 13 12 13 12 11
Wind_Direction_500mb
126 127 135 140 144 132 3 337 328 321 311 303 303 303 298 290 293 288 288 290 282 272 275 274 270 264 254 250 253 259 268 273
144 151 150 146 135 81 45 31 20 8 347 325 325 323 315 296 290 287 285 285 281 265 269 274 267 266 253 254 255 257 262 268
144 141 136 132 109 38 24 11 19 26 19 9 355 341 331 323 312 293 292 283 273 265 268 269 273 269 260 260 260 257 263 264
139 127 112 95 83 73 54 23 25 22 19 16 10 2 349 336 325 315 297 290 279 271 261 264 271 271 270 265 264 263 263 272
131 118 100 81 72 64 50 42 27 14 10 7 6 359 354 343 335 323 314 298 282 272 267 259 262 263 261 259 259 262 265 268
114 96 81 77 72 77 65 39 17 4 358 358 349 343 340 341 336 328 319 310 298 283 271 266 261 272 262 257 256 264 263 265
100 88 88 96 95 81 53 25 0 355 351 345 339 334 334 335 335 334 325 315 304 293 284 272 264 266 270 262 247 261 264 260
120 111 104 106 90 48 17 7 358 352 345 340 335 337 338 335 331 330 324 317 311 298 290 282 268 261 262 257 250 253 249 249
99 106 122 118 76 24 10 357 348 342 339 335 334 331 335 336 332 332 331 331 322 309 300 284 272 258 257 254 257 251 244 251
91 90 87 58 29 10 355 348 347 343 339 342 341 338 341 341 338 342 344 343 336 325 320 305 268 258 254 253 258 256 252 241
93 83 62 32 13 360 353 351 345 346 354 351 345 344 351 346 344 353 350 345 337 330 320 316 300 265 254 251 253 260 252 237
79 53 23 4 353 348 351 352 1 359 352 353 352 350 352 352 350 339 345 350 345 335 337 316 308 306 251 247 253 236 238 222
31 19 6 354 348 345 348 353 348 345 342 351 350 347 349 350 349 348 351 339 341 338 341 332 316 255 226 209 218 227 205 210
21 12 11 6 358 352 345 338 335 327 338 335 337 336 337 338 339 340 345 348 336 329 334 337 310 302 271 251 234 226 224 233
17 8 1 1 3 355 344 331 330 325 332 334 325 324 330 333 334 333 334 337 336 327 322 325 316 291 266 226 245 249 267 256
13 10 7 360 350 339 324 321 323 323 324 325 321 317 318 320 321 323 326 327 327 317 312 311 312 293 270 264 245 237 280 281
1 356 350 335 324 325 319 320 323 325 323 317 311 308 311 312 313 313 316 319 318 310 309 308 296 292 269 264 278 263 283 285
357 340 326 316 320 327 327 326 322 322 321 316 311 314 310 308 306 306 305 310 310 309 308 305 301 287 283 272 274 274 273 281
329 335 328 328 329 325 322 315 319 322 315 312 318 317 308 303 309 299 294 297 304 310 307 317 306 306 295 286 286 279 281 289
333 330 329 326 323 318 314 312 320 313 314 316 321 319 317 311 309 308 291 300 298 303 312 308 306 301 303 310 311 309 311 327
Wind_Speed_850mb
43 43 36 29 19 7 5 16 27 35 37 36 34 28 31 34 38 42 45 47 41 40 44 43 40 40 41 36 28 27 26 24
31 24 20 14 13 14 25 34 32 25 22 25 32 37 39 44 46 44 47 46 46 41 46 48 45 42 43 41 38 35 34 33
42 39 33 22 9 17 31 34 35 38 40 41 40 41 43 46 47 53 53 50 48 46 48 54 57 55 55 52 52 47 43 39
52 45 39 32 29 27 22 21 32 37 45 50 47 47 48 50 52 52 52 53 55 54 57 57 61 62 62 58 52 52 48 42
43 39 34 24 25 25 26 28 27 30 39 45 46 50 57 61 56 54 57 59 58 59 61 63 58 62 67 71 59 55 50 44
31 28 29 29 28 23 21 23 26 33 42 52 59 65 72 67 66 61 59 61 62 61 62 63 63 61 71 75 65 56 51 46
30 30 28 27 23 20 23 22 30 41 49 56 67 72 79 82 68 67 65 63 64 66 67 66 64 65 66 67 51 57 47 49
24 23 23 23 18 15 21 35 46 48 51 58 67 70 73 80 77 71 64 65 60 60 64 63 64 65 62 58 58 52 44 40
25 22 21 19 14 22 35 41 45 49 59 69 69 72 67 53 54 57 55 57 56 47 47 49 52 60 57 54 58 50 43 42
45 38 28 20 23 26 27 30 37 47 54 58 52 50 48 44 46 49 48 52 55 47 45 37 41 43 53 59 55 56 54 41
31 24 18 13 15 22 31 36 42 46 44 47 45 47 52 51 45 42 45 45 51 40 33 32 23 34 35 50 56 58 52 44
19 18 20 26 29 29 33 38 33 33 39 41 44 50 50 48 51 49 44 46 47 42 33 20 18 13 24 40 49 42 41 33
16 21 26 30 34 36 35 28 29 27 27 34 41 46 46 47 47 47 52 48 52 51 35 27 18 21 21 19 20 18 23 27
16 24 31 36 38 37 32 30 21 28 28 30 33 39 45 50 56 58 58 57 59 51 44 36 25 19 19 26 30 32 33 41
18 28 35 38 36 35 35 37 35 37 36 37 35 38 42 47 53 61 65 66 63 59 47 35 31 27 14 14 17 21 28 30
26 30 32 34 35 33 34 33 34 36 41 41 40 44 50 56 58 60 63 64 61 51 48 39 31 33 31 22 20 25 31 50
20 22 23 27 29 32 27 35 42 51 60 67 65 61 61 64 61 62 65 60 54 42 43 38 37 33 41 46 46 50 38 34
21 21 25 26 28 37 42 47 55 72 77 69 69 72 69 63 64 61 55 48 39 34 38 37 35 33 35 41 44 42 42 37
22 24 22 34 42 52 62 63 67 74 70 65 70 73 61 51 52 48 42 36 31 33 33 31 28 27 26 27 29 32 29 27
18 26 37 53 66 65 63 61 73 63 64 71 80 63 45 41 42 36 28 27 29 26 22 24 26 21 14 13 12 13 12 11
Wind_Direction_850mb
126 127 135 140 144 132 3 337 328 321 311 303 303 303 298 290 293 288 288 290 282 272 275 274 270 264 254 250 253 259 268 273
144 151 150 146 135 81 45 31 20 8 347 325 325 323 315 296 290 287 285 285 281 265 269 274 267 266 253 254 255 257 262 268
144 141 136 132 109 38 24 11 19 26 19 9 355 341 331 323 312 293 292 283 273 265 268 269 273 269 260 260 260 257 263 264
139 127 112 95 83 73 54 23 25 22 19 16 10 2 349 336 325 315 297 290 279 271 261 264 271 271 270 265 264 263 263 272
131 118 100 81 72 64 50 42 27 14 10 7 6 359 354 343 335 323 314 298 282 272 267 259 262 263 261 259 259 262 265 268
114 96 81 77 72 77 65 39 17 4 358 358 349 343 340 341 336 328 319 310 298 283 271 266 261 272 262 257 256 264 263 265
100 88 88 96 95 81 53 25 0 355 351 345 339 334 334 335 335 334 325 315 304 293 284 272 264 266 270 262 247 261 264 260
120 111 104 106 90 48 17 7 358 352 345 340 335 337 338 335 331 330 324 317 311 298 290 282 268 261 262 257 250 253 249 249
99 106 122 118 76 24 10 357 348 342 339 335 334 331 335 336 332 332 331 331 322 309 300 284 272 258 257 254 257 251 244 251
91 90 87 58 29 10 355 348 347 343 339 342 341 338 341 341 338 342 344 343 336 325 320 305 268 258 254 253 258 256 252 241
93 83 62 32 13 360 353 351 345 346 354 351 345 344 351 346 344 353 350 345 337 330 320 316 300 265 254 251 253 260 252 237
79 53 23 4 353 348 351 352 1 359 352 353 352 350 352 352 350 339 345 350 345 335 337 316 308 306 251 247 253 236 238 222
31 19 6 354 348 345 348 353 348 345 342 351 350 347 349 350 349 348 351 339 341 338 341 332 316 255 226 209 218 227 205 210
21 12 11 6 358 352 345 338 335 327 338 335 337 336 337 338 339 340 345 348 336 329 334 337 310 302 271 251 234 226 224 233
17 8 1 1 3 355 344 331 330 325 332 334 325 324 330 333 334 333 334 337 336 327 322 325 316 291 266 226 245 249 267 256
13 10 7 360 350 339 324 321 323 323 324 325 321 317 318 320 321 323 326 327 327 317 312 311 312 293 270 264 245 237 280 281
1 356 350 335 324 325 319 320 323 325 323 317 311 308 311 312 313 313 316 319 318 310 309 308 296 292 269 264 278 263 283 285
357 340 326 316 320 327 327 326 322 322 321 316 311 314 310 308 306 306 305 310 310 309 308 305 301 287 283 272 274 274 273 281
329 335 328 328 329 325 322 315 319 322 315 312 318 317 308 303 309 299 294 297 304 310 307 317 306 306 295 286 286 279 281 289
333 330 329 326 323 318 314 312 320 313 314 316 321 319 317 311 309 308 291 300 298 303 312 308 306 301 303 310 311 309 311 327